User: anonymous   Login
Location: Clanezzo
(45.7500°N, 9.6000°E)
Time: 03:50:15
(UTC+00:00)
Language:

Cosmos 2369 Rocket - Orbit

View from above orbital plane
View from above orbital plane
View from above satellite
View from above satellite

Ground track
Ground track

The orbit data is extracted from the following two-line orbital elements,

1 26070U 00006B   21207.60592297 -.00000173  00000-0 -63764-4 0  9996
2 26070  71.0003  43.9684 0018355 233.9574 125.9849 14.15466905109826
Epoch (UTC): 26 July 2021 14:32:31
Eccentricity: 0.0018355
inclination: 71.0003°
perigee height: 827 km
apogee height: 854 km
right ascension of ascending node: 43.9684°
argument of perigee: 233.9574°
revolutions per day: 14.15466905
mean anomaly at epoch: 125.9849°
orbit number at epoch: 10982

The dashed part of the orbit path shows where the satellite is in the earth's shadow,  

DLR